Location: Mapua
(41.2500°S, 173.1000°E)
Time: 02:00:51
(UTC+13:00)

N. Korean satellite - Visible Passes

Search period start: 23 March 2019 00:00
Search period end: 02 April 2019 00:00
Orbit: 456 x 510 km, 97.2° (Epoch: 22 March)

Date Brightness Start Highest point End Pass type
(mag) Time Alt. Az. Time Alt. Az. Time Alt. Az.
23 Mar 7.3 06:37:18 10° NNE 06:41:01 62° ESE 06:44:49 10° S visible
24 Mar 8.8 06:12:59 10° NE 06:16:19 30° ESE 06:19:42 10° S visible
24 Mar 10.0 20:47:22 10° SSW 20:49:22 14° WSW 20:51:21 10° W visible
25 Mar 9.9 05:49:18 10° ENE 05:51:43 16° ESE 05:54:09 10° SSE visible
25 Mar 9.1 20:21:39 10° SSW 20:24:46 26° WSW 20:27:49 10° NW visible
26 Mar 6.6 06:56:13 10° N 06:59:58 74° W 07:03:48 10° SSW visible
26 Mar 7.5 19:56:29 10° S 20:00:05 54° WSW 20:03:34 10° NNW visible
27 Mar 7.6 06:31:31 10° NNE 06:35:11 52° ESE 06:38:55 10° S visible
28 Mar 9.1 06:07:18 10° NE 06:10:30 26° ESE 06:13:43 10° SSE visible
28 Mar 9.8 20:41:15 10° SSW 20:43:32 16° WSW 20:45:47 10° WNW visible
29 Mar 10.0 05:43:49 10° E 05:45:53 14° ESE 05:47:58 10° SSE visible
29 Mar 8.8 20:15:40 10° S 20:18:54 30° WSW 20:22:02 10° NW visible
30 Mar 6.7 06:50:18 10° NNE 06:54:05 87° WNW 06:57:54 10° SSW visible
30 Mar 7.1 19:50:33 10° S 19:54:10 64° WSW 19:57:39 10° NNW visible
31 Mar 8.0 06:25:43 10° NE 06:29:19 44° ESE 06:32:57 10° S visible
01 Apr 9.3 06:01:37 10° ENE 06:04:37 23° ESE 06:07:39 10° SSE visible
01 Apr 9.7 20:35:05 10° SSW 20:37:38 18° WSW 20:40:07 10° WNW visible
